Renton, WA
on Thursday, November 29, 2012

Thursday
Previous Day Next Day
Daily Summary
 ActualAverage (KSEA)Record (KSEA)
Temperature
Mean Temperature °F 42°F  
Max Temperature 57°F 48°F 59°F (1999)
Min Temperature 48°F 37°F 18°F (2006)
Degree Days
Heating Degree Days 12 23  
Month to date heating degree days 564  
Since 1 July heating degree days 1161  
Cooling Degree Days 0 0  
Month to date cooling degree days 0  
Year to date cooling degree days 189  
Growing Degree Days2 (Base °F )  
Moisture
Dew Point 42°F   
Average Humidity 66    
Maximum Humidity 86    
Minimum Humidity 51    
Precipitation
Precipitation 0.07 in 0.23 in 1.08 in (1964)
Month to date precipitation 6.35  
Year to date precipitation 31.92  
Snow
Snow 0.00 in in 1.00 in (2006)
Month to date snowfall  
Since 1 July snowfall  
Snow Depth in   
Wind
Wind Speed 4 mph   
Max Wind Speed 13 mph   
Max Gust Speed 24 mph   
Visibility 10 miles   
Events Rain   

Key: T is trace of precipitation, MM is missing value
Source: NWS Daily Summary
Time(PST)TemperatureDew PointHumidity Pressure Visibility Wind DirectionWind SpeedGust SpeedPrecipitationEvents Conditions
12:53 AM 48.9°F 39.0°F 69% 29.71 in 10.0 miles SSE 4.6 mph - N/A   Mostly Cloudy
1:53 AM 50.0°F 39.0°F 66% 29.69 in 10.0 miles SSE 3.5 mph - N/A   Mostly Cloudy
2:53 AM 50.0°F 39.0°F 66% 29.68 in 10.0 miles South 4.6 mph - N/A   Overcast
3:53 AM 52.0°F 37.9°F 59% 29.64 in 10.0 miles SSE 5.8 mph - N/A   Mostly Cloudy
4:53 AM 53.1°F 37.9°F 57% 29.61 in 10.0 miles Calm Calm - 0.00 in Rain Light Rain
5:53 AM 55.9°F 37.9°F 51% 29.57 in 10.0 miles ESE 11.5 mph 20.7 mph 0.00 in   Overcast
6:53 AM 54.0°F 41.0°F 62% 29.55 in 10.0 miles ESE 12.7 mph 24.2 mph 0.01 in Rain Light Rain
7:53 AM 55.4°F 41.0°F 58% 29.52 in 10.0 miles SSE 6.9 mph 18.4 mph N/A Rain Light Rain
8:53 AM 54.0°F 42.1°F 64% 29.57 in 10.0 miles South 5.8 mph - 0.00 in Rain Light Rain
9:53 AM 52.0°F 44.1°F 74% 29.62 in 8.0 miles Calm Calm - 0.02 in Rain Light Rain
10:53 AM 51.1°F 46.9°F 86% 29.62 in 10.0 miles ESE 3.5 mph - 0.02 in Rain Light Rain
11:53 AM 53.1°F 46.9°F 80% 29.62 in 10.0 miles East 5.8 mph - 0.01 in   Overcast
12:53 PM 52.0°F 45.0°F 77% 29.61 in 8.0 miles Calm Calm - 0.01 in Rain Light Rain
1:53 PM 54.0°F 46.0°F 75% 29.58 in 10.0 miles Calm Calm - 0.00 in   Overcast
2:53 PM 57.9°F 43.0°F 58% 29.59 in 10.0 miles SSE 5.8 mph - N/A   Overcast
3:53 PM 57.0°F 43.0°F 59% 29.57 in 10.0 miles Calm Calm - N/A   Mostly Cloudy
4:53 PM 53.1°F 43.0°F 69% 29.57 in 10.0 miles Calm Calm - N/A   Overcast
5:53 PM 54.0°F 41.0°F 62% 29.55 in 10.0 miles Calm Calm - N/A   Overcast
6:53 PM 53.1°F 41.0°F 64% 29.55 in 10.0 miles East 8.1 mph - 0.00 in Rain Light Rain
7:53 PM 52.0°F 39.9°F 63% 29.52 in 10.0 miles SSW 4.6 mph - 0.00 in   Overcast
8:53 PM 52.0°F 41.0°F 66% 29.52 in 10.0 miles Calm Calm - N/A   Overcast
9:53 PM 51.1°F 41.0°F 68% 29.51 in 10.0 miles Variable 3.5 mph - 0.00 in Rain Light Rain
10:53 PM 50.0°F 39.9°F 68% 29.48 in 10.0 miles South 3.5 mph - 0.00 in   Clear
11:53 PM 50.0°F 41.0°F 71% 29.46 in 10.0 miles South 4.6 mph - N/A   Overcast
Moon Phase
Nov. 29 Dec. 06 Dec. 13 Dec. 20 Dec. 28
Sunrise:07:33 AM (PST) Moon Rise:05:27 PM (PST)11/29
Sunset:04:20 PM (PST) Moon Set:08:25 AM (PST)11/29

Copyright © 2014 The Weather Underground, Inc.